#timestamp,LO_Frequency,Hit,StdDev 
1459785615.6,286046998.4,N
1459785635.5,286046998.7,N
1459785655.3,286046999.6,N
1459785675.1,286047001.1,N
1459785695.9,286046998.6,N
1459785715.7,286046999.0,N
1459785735.5,286046998.8,N
1459785755.4,286046998.8,N
1459785775.2,286046998.2,N
1459785795.0,286046998.1,N
1459785795.9,286046998.1,N
1459785815.7,286047000.6,N
1459785835.6,286047000.8,N
1459785855.4,286047002.5,N
1459785875.2,286047002.5,N
1459785895.1,286047002.8,N
1459785896.0,286047002.8,N
1459785915.8,286047002.4,N
1459785935.6,286047000.3,N
1459785955.5,286046998.2,N
1459785975.3,286047000.7,N
1459785995.1,286047000.8,N
1459786015.9,286046999.7,N
1459786035.7,286047000.6,N
1459786055.5,286047001.0,N
1459786075.4,286046998.1,N
1459786095.2,286046999.3,N
1459786115.0,286047001.2,N
1459786115.9,286047001.2,N
1459786135.8,286047000.0,N
1459786155.6,286047000.0,N
1459786175.4,286047001.3,N
1459786195.2,286047001.9,N
1459786215.1,286047000.0,N
1459786216.0,286047000.0,N
1459786235.8,286047002.0,N
1459786255.6,286047004.2,N
1459786275.5,286047001.9,N
1459786295.3,286047002.2,N
1459786315.1,286047002.3,N
1459786335.9,286047002.5,N
1459786355.7,286047002.2,N
1459786375.5,286047004.4,Y
1459786395.4,286047002.7,P
1459786415.2,286046999.9,N
1459786435.0,286047002.8,N
1459786435.9,286047002.8,N
1459786455.8,286046998.5,N
1459786475.6,286047000.7,N
1459786495.4,286046999.7,N
1459786515.3,286047000.8,N
1459786535.1,286047000.0,N
1459786536.0,286047000.0,N
1459786555.8,286047000.3,N
1459786575.7,286047000.8,N
1459786595.5,286046998.7,N
1459786615.3,286047002.8,N
1459786635.2,286047002.8,N
1459786655.9,286047002.7,N
1459786675.7,286047004.3,N
1459786695.5,286047003.1,N
1459786715.4,286047003.0,N
1459786735.2,286047004.1,N
1459786755.0,286047003.6,N
1459786755.9,286047003.6,N
1459786775.8,286047005.8,Y
1459786795.6,286047001.6,P
1459786815.4,286047002.5,P
1459786835.3,286047000.3,N
1459786855.1,286047000.0,N
1459786875.8,286047000.0,N
1459786895.7,286046999.9,N
1459786915.5,286046998.4,N
1459786935.3,286046999.0,N
1459786955.2,286046999.5,N
1459786975.9,286046996.9,N
1459786995.7,286046998.5,N
1459787015.6,286047001.2,N
1459787035.4,286046998.5,N
1459787055.2,286046998.1,N
1459787075.0,286047000.0,N
1459787076.0,286047000.0,N
1459787095.8,286046998.6,N
1459787115.6,286047000.4,N
1459787135.4,286047002.0,N
1459787155.3,286047001.3,N
1459787175.1,286047002.2,N
1459787195.8,286047002.3,N
1459787215.7,286047001.9,N
1459787235.5,286047002.4,N
1459787255.3,286047002.4,N
1459787275.2,286047001.9,N
1459787295.9,286047003.8,N
1459787315.7,286047001.8,N
1459787335.6,286046999.8,N
1459787355.4,286047000.9,N
1459787375.2,286047000.7,N
1459787395.0,286047002.4,N
1459787396.0,286047002.4,N
1459787415.8,286047001.6,N
1459787435.6,286047001.4,N
1459787455.4,286047003.5,N
1459787475.3,286047003.3,N
1459787495.1,286047005.4,Y
1459787515.8,286047003.4,P
1459787535.7,286047003.8,P
1459787555.5,286047004.1,P
1459787575.3,286047005.9,Y
1459787595.2,286047000.8,P
1459787615.0,286047000.9,N
1459787615.9,286047000.9,N
1459787635.7,286046999.7,N
1459787655.6,286047002.7,N
1459787675.4,286047002.8,N
1459787695.2,286047002.7,N
1459787715.1,286047002.0,N
1459787716.0,286047002.0,N
1459787735.8,286046999.7,N
1459787755.6,286047000.4,N
1459787775.5,286047002.3,N
1459787795.3,286047001.8,N
1459787815.1,286046999.8,N
1459787835.9,286047002.5,N
1459787855.7,286047000.1,N
1459787875.5,286047002.7,N
1459787895.3,286047002.2,N
1459787915.2,286047001.5,N
1459787935.0,286047001.0,N
1459787935.9,286047001.0,N
1459787955.7,286047002.8,N
1459787975.6,286047002.5,N
1459787995.4,286047001.9,N
1459788015.2,286047002.2,N
1459788035.1,286047003.2,Y
1459788036.0,286047003.2,P
1459788055.8,286047003.6,P
1459788075.6,286047004.0,P
1459788095.5,286047005.9,Y
1459788115.3,286046999.9,P
1459788135.2,286047000.3,N
1459788155.9,286046998.2,N
1459788175.7,286047000.3,N
1459788195.6,286046999.4,N
1459788215.4,286046997.2,N
1459788235.2,286046996.9,N
1459788255.0,286046999.3,N
1459788256.0,286046999.3,N
1459788275.8,286046996.9,N
1459788295.6,286046997.3,N
1459788315.4,286046998.2,N
1459788335.3,286046997.5,N
1459788355.1,286046996.6,N
1459788375.8,286046997.4,N
1459788395.7,286046996.7,N
1459788415.5,286046997.3,N
1459788435.3,286046997.9,N
1459788455.2,286046996.0,N
1459788475.9,286046993.6,Y
1459788495.7,286046997.9,P
1459788515.6,286046996.7,P
1459788535.4,286046995.4,P
1459788555.2,286046994.9,Y
1459788575.1,286046999.0,P
1459788576.0,286046999.0,N
1459788595.8,286047000.9,N
1459788615.6,286047002.6,N
1459788635.5,286047004.3,N
1459788655.3,286047003.2,N
1459788675.1,286047002.4,N
1459788695.9,286047001.7,N
1459788715.7,286047002.5,N
1459788735.5,286046999.8,N
1459788755.3,286047000.9,N
1459788775.2,286047001.3,N
1459788795.0,286047002.8,N
1459788795.9,286047002.8,N
1459788815.7,286046999.8,N
1459788835.6,286047003.4,N
1459788855.4,286047005.5,N
1459788875.2,286047005.9,N
1459788895.1,286047003.8,N
1459788896.0,286047003.8,N
1459788915.8,286047004.4,N
1459788935.6,286047002.7,N
1459788955.5,286047000.5,N
1459788975.3,286047002.3,N
1459788995.1,286047002.6,N
1459789015.9,286047002.6,N
1459789035.7,286047002.2,N
1459789055.5,286047000.1,N
1459789075.3,286047001.5,N
1459789095.2,286047002.5,N
1459789115.0,286046999.8,N
1459789115.9,286046999.8,N
1459789135.7,286047000.1,N
1459789155.6,286047000.5,N
1459789175.4,286046999.9,N
1459789195.2,286047004.0,N
